San Antonio, TX

2:09 AM CST on February 10, 2016 (GMT -0600)
San Antonio International

Weather History for KSAT - August, 2014

Change the Weather History Date:

Tuesday, August 5, 2014

  Actual Average Record
Temperature  
Mean Temperature 85 °F 86 °F  
Max Temperature 97 °F 96 °F 104 °F (1951)
Min Temperature 73 °F 75 °F 66 °F (1973)
Degree Days  
Heating Degree Days 0 0  
Month to date heating degree days 0 0  
Since 1 June heating degree days 0 0  
Since 1 July heating degree days 0 0  
Cooling Degree Days 20 21  
Month to date cooling degree days 97 105  
Year to date cooling degree days 1976 1865  
Since 1 June cooling degree days 1272 1236  
Growing Degree Days 35 (Base 50)    
Moisture  
Dew Point 66 °F    
Average Humidity 59    
Maximum Humidity 87    
Minimum Humidity 31    
Precipitation  
Precipitation 0.00 in 0.05 in 2.34 in (1894)
Month to date precipitation 0.00 0.24  
Year to date precipitation 15.99 19.09  
Snow  
Snow 0.00 in - - ()
Month to date snowfall 0.0  
Since 1 June snowfall 0.0  
Since 1 July snowfall 0.0  
Snow Depth 0.00 in    
Sea Level Pressure  
Sea Level Pressure 29.98 in    
Wind  
Wind Speed 5 mph (SE)    
Max Wind Speed 23 mph    
Max Gust Speed 27 mph    
Visibility 10 miles    
Events Fog    
T = Trace of Precipitation, MM = Missing Value Source: NWS Daily Summary

Daily Weather History Graph

Daily Weather History Graph

Search for Another Location

Airport or City:

Trip Planner

Search our weather history database for the weather conditions in past years. The results will help you decide how hot, cold, wet, or windy it might be!

Date:

Astronomy

Aug. 05, 2014 Rise Set
Actual Time 6:56 AM CDT 8:23 PM CDT
Civil Twilight 6:30 AM CDT 8:48 PM CDT
Nautical Twilight 6:00 AM CDT 9:19 PM CDT
Astronomical Twilight 5:28 AM CDT 9:50 PM CDT
Moon 3:38 PM CDT (8/5) 1:44 AM CDT (8/5)
Length of Visible Light 14h 18m
Length of Day
13h 27m
Waxing Gibbous, 68% of the Moon is Illuminated
Aug 5
Waxing Gibbous
Aug 10
Full
Aug 17
Last Quarter
Aug 25
New
Sep 2
First Quarter

Hourly Weather History & Observations

Time (CDT) Temp. Heat Index Dew Point Humidity Pressure Visibility Wind Dir Wind Speed Gust Speed Precip Events Conditions
12:51 AM 82.4 °F 86.3 °F 69.8 °F 66% 30.03 in 10.0 mi SSE 8.1 mph - N/A   Overcast
1:51 AM 80.1 °F 83.2 °F 70.0 °F 71% 29.98 in 10.0 mi ESE 4.6 mph - N/A   Mostly Cloudy
2:51 AM 77.0 °F - 70.0 °F 79% 29.97 in 10.0 mi East 4.6 mph - N/A   Mostly Cloudy
3:51 AM 77.0 °F - 69.8 °F 78% 30.02 in 10.0 mi Calm Calm - N/A   Scattered Clouds
4:51 AM 75.9 °F - 70.0 °F 82% 29.97 in 10.0 mi Calm Calm - N/A   Scattered Clouds
5:51 AM 75.0 °F - 70.0 °F 84% 29.98 in 10.0 mi Calm Calm - N/A   Clear
6:51 AM 73.0 °F - 69.1 °F 87% 29.99 in 8.0 mi Calm Calm - N/A Fog Patches of Fog
7:51 AM 75.9 °F - 71.1 °F 85% 30.01 in 8.0 mi Calm Calm - N/A Fog Patches of Fog
8:51 AM 80.1 °F 83.6 °F 71.1 °F 74% 30.03 in 10.0 mi Calm Calm - N/A   Partly Cloudy
9:51 AM 84.2 °F 88.4 °F 69.8 °F 62% 30.09 in 10.0 mi Variable 3.5 mph - N/A   Partly Cloudy
10:51 AM 84.9 °F 87.1 °F 66.0 °F 53% 30.04 in 10.0 mi Calm Calm - N/A   Partly Cloudy
11:51 AM 88.0 °F 89.6 °F 64.9 °F 46% 30.04 in 10.0 mi Calm Calm - N/A   Partly Cloudy
12:51 PM 91.9 °F 94.1 °F 64.9 °F 41% 30.01 in 10.0 mi SSE 9.2 mph - N/A   Scattered Clouds
1:51 PM 93.0 °F 94.6 °F 64.0 °F 38% 29.99 in 10.0 mi SSE 6.9 mph - N/A   Scattered Clouds
2:51 PM 95.0 °F 96.0 °F 63.0 °F 34% 29.97 in 10.0 mi SE 8.1 mph - N/A   Scattered Clouds
3:51 PM 97.0 °F 98.3 °F 63.0 °F 32% 29.96 in 10.0 mi SSE 9.2 mph - N/A   Scattered Clouds
4:51 PM 96.1 °F 96.9 °F 62.1 °F 32% 29.94 in 10.0 mi Variable 4.6 mph - N/A   Scattered Clouds
5:51 PM 95.0 °F 95.2 °F 61.0 °F 32% 29.93 in 10.0 mi SE 5.8 mph - N/A   Mostly Cloudy
6:51 PM 95.0 °F 95.6 °F 62.1 °F 33% 29.91 in 10.0 mi SE 11.5 mph - N/A   Mostly Cloudy
7:51 PM 93.0 °F 93.0 °F 61.0 °F 34% 29.91 in 10.0 mi ESE 6.9 mph - N/A   Mostly Cloudy
8:51 PM 89.1 °F 89.3 °F 62.1 °F 40% 29.91 in 10.0 mi East 6.9 mph - N/A   Scattered Clouds
9:51 PM 86.0 °F 87.3 °F 64.0 °F 48% 29.93 in 10.0 mi East 5.8 mph - N/A   Partly Cloudy
10:51 PM 87.1 °F 90.6 °F 68.0 °F 53% 29.96 in 10.0 mi SE 19.6 mph - N/A   Partly Cloudy
11:51 PM 84.9 °F 88.8 °F 69.1 °F 59% 29.97 in 10.0 mi SE 10.4 mph - N/A   Scattered Clouds